GW3011 Weather Reports


Display with metric or nautical units.
time (UTC)temp
F
wind
direction
speed
MPH
gust
MPH
rain 1hr
in
rain 24hr
in
rain mn
in
humidity
%
barometer
mb
20260502200156 63 307 1.0 1.0 0.00 0.00 0.00 37 1009.3
20260502195655 62 244 4.0 4.0 0.00 0.00 0.00 38 1009.2
20260502195151 62 305 2.0 3.0 0.00 0.00 0.00 40 1009.3
20260502194648 62 318 2.0 2.0 0.00 0.00 0.00 40 1009.5
20260502194144 62 283 4.0 4.0 0.00 0.00 0.00 41 1009.7
20260502193641 60 299 2.0 3.0 0.00 0.00 0.00 43 1009.7
20260502193138 60 293 2.0 2.0 0.00 0.00 0.00 44 1009.7
20260502192633 61 283 3.0 3.0 0.00 0.00 0.00 42 1009.8
20260502192131 61 191 3.0 6.0 0.00 0.00 0.00 44 1009.9
20260502191628 61 314 2.0 4.0 0.00 0.00 0.00 44 1010.1
20260502191125 62 259 2.0 2.0 0.00 0.00 0.00 43 1010.1
20260502190623 61 277 2.0 3.0 0.00 0.00 0.00 43 1010.1
20260502190120 61 311 1.0 2.0 0.00 0.00 0.00 44 1010.3
20260502185615 62 280 2.0 3.0 0.00 0.00 0.00 44 1010.1
20260502185112 62 272 1.0 1.0 0.00 0.00 0.00 44 1010.1
20260502184608 62 283 1.0 1.0 0.00 0.00 0.00 44 1010.4
20260502184103 62 278 5.0 6.0 0.00 0.00 0.00 44 1010.3
20260502183600 61 345 1.0 2.0 0.00 0.00 0.00 46 1010.5
20260502183056 61 186 3.0 4.0 0.00 0.00 0.00 46 1010.5
20260502182552 60 253 4.0 6.0 0.00 0.00 0.00 47 1010.4
20260502182048 60 89 5.0 7.0 0.00 0.00 0.00 46 1010.4
20260502181546 61 221 3.0 6.0 0.00 0.00 0.00 47 1010.2
20260502181044 62 187 4.0 7.0 0.00 0.00 0.00 46 1010.7
20260502180540 60 289 1.0 2.0 0.00 0.00 0.00 48 1010.4
20260502170454 60 138 1.0 2.0 0.00 0.00 0.00 52 1010.8
20260502163937 59 253 3.0 4.0 0.00 0.00 0.00 55 1011.5
20260502163433 58 312 0.0 1.0 0.00 0.00 0.00 58 1011.1
20260502162931 58 289 1.0 2.0 0.00 0.00 0.00 58 1011.4
20260502162428 58 270 3.0 3.0 0.00 0.00 0.00 58 1011.4
20260502161925 58 229 1.0 1.0 0.00 0.00 0.00 61 1011.4
20260502161421 56 290 2.0 3.0 0.00 0.00 0.00 63 1011.3
20260502160919 56 318 3.0 4.0 0.00 0.00 0.00 64 1011.2
20260502160417 55 281 2.0 3.0 0.00 0.00 0.00 67 1011.2
20260502151855 55 303 1.0 2.0 0.00 0.00 0.00 68 1011.4
20260502151351 55 298 2.0 2.0 0.00 0.00 0.00 67 1011.3
20260502150849 56 291 1.0 2.0 0.00 0.00 0.00 68 1011.4
20260502150345 55 277 2.0 2.0 0.00 0.00 0.00 69 1011.5
20260502130734 53 240 3.0 4.0 0.00 0.00 0.00 75 1011.6
20260502130231 53 299 0.0 1.0 0.00 0.00 0.00 78 1011.6
20260502123717 53 283 1.0 1.0 0.00 0.00 0.00 76 1011.8
20260502123214 54 280 0.0 0.0 0.00 0.00 0.00 77 1011.6
20260502122710 53 256 1.0 2.0 0.00 0.00 0.00 78 1011.5
20260502122207 53 298 1.0 1.0 0.00 0.00 0.00 78 1011.4
20260502121705 54 242 2.0 2.0 0.00 0.00 0.00 77 1011.3
20260502121203 53 307 0.0 0.0 0.00 0.00 0.00 77 1011.3
20260502120659 54 291 0.0 0.0 0.00 0.00 0.00 76 1011.5
20260502120156 53 244 1.0 2.0 0.00 0.00 0.00 76 1011.5
20260502115654 53 305 0.0 0.0 0.00 0.00 0.00 76 1011.3
20260502115150 53 309 0.0 0.0 0.00 0.00 0.00 79 1011.1
20260502114646 53 307 0.0 0.0 0.00 0.00 0.00 77 1011.3
20260502114143 53 305 0.0 0.0 0.00 0.00 0.00 80 1011.5
20260502113641 53 305 0.0 0.0 0.00 0.00 0.00 77 1011.3
20260502113139 53 295 0.0 0.0 0.00 0.00 0.00 77 1011.5
20260502112636 53 305 0.0 0.0 0.00 0.00 0.00 80 1011.3
20260502112133 53 302 0.0 0.0 0.00 0.00 0.00 82 1011.2
20260502111631 53 300 0.0 0.0 0.00 0.00 0.00 81 1011.3
20260502111128 53 284 0.0 1.0 0.00 0.00 0.00 83 1011.2
20260502110626 53 306 0.0 0.0 0.00 0.00 0.00 82 1011.1
20260502110123 53 302 0.0 0.0 0.00 0.00 0.00 83 1011.0
20260502105621 52 301 0.0 0.0 0.00 0.00 0.00 83 1011.1
20260502105117 52 306 0.0 0.0 0.00 0.00 0.00 84 1011.1
20260502104615 52 307 0.0 0.0 0.00 0.00 0.00 85 1011.1
20260502104112 51 309 0.0 0.0 0.00 0.00 0.00 84 1010.6
20260502103609 51 305 0.0 0.0 0.00 0.00 0.00 84 1010.5
20260502103108 51 306 0.0 0.0 0.00 0.00 0.00 85 1010.6
20260502102604 51 306 0.0 0.0 0.00 0.00 0.00 85 1010.7
20260502102101 51 299 0.0 0.0 0.00 0.00 0.00 87 1010.6
20260502101559 51 308 0.0 0.0 0.00 0.00 0.00 87 1010.4
20260502101057 51 305 0.0 0.0 0.00 0.00 0.00 87 1010.5
20260502100555 51 305 0.0 0.0 0.00 0.00 0.00 86 1010.6
20260502091530 52 219 1.0 3.0 0.00 0.00 0.00 81 1010.9
20260502091027 52 318 0.0 1.0 0.00 0.00 0.00 82 1010.9
20260502090524 52 243 2.0 3.0 0.00 0.00 0.00 81 1011.0
20260502071419 53 253 3.0 3.0 0.00 0.00 0.00 74 1010.8
20260502070916 53 198 1.0 2.0 0.00 0.00 0.00 74 1010.9
20260502070414 53 301 4.0 6.0 0.00 0.00 0.00 73 1010.7
20260502065912 53 307 2.0 2.0 0.00 0.00 0.00 73 1010.7
20260502065411 53 154 5.0 6.0 0.00 0.00 0.00 72 1010.6
20260502064908 54 305 1.0 3.0 0.00 0.00 0.00 71 1010.7
20260502064406 54 118 4.0 4.0 0.00 0.00 0.00 71 1011.0
20260502063903 54 296 1.0 1.0 0.00 0.00 0.00 70 1011.0
20260502063400 54 120 4.0 7.0 0.00 0.00 0.00 70 1011.0
20260502062858 54 260 2.0 2.0 0.00 0.00 0.00 70 1010.8
20260502062355 54 197 4.0 4.0 0.00 0.00 0.00 69 1011.2
20260502061854 54 202 2.0 2.0 0.00 0.00 0.00 69 1011.2
20260502061351 54 262 2.0 3.0 0.00 0.00 0.00 69 1011.2
20260502060847 54 251 1.0 2.0 0.00 0.00 0.00 70 1011.3
20260502060342 54 182 2.0 4.0 0.00 0.00 0.00 69 1011.3
20260502055840 54 180 5.0 9.0 0.00 0.00 0.00 68 1011.1
20260502055338 55 234 2.0 3.0 0.00 0.00 0.00 68 1011.0
20260502054837 55 200 1.0 2.0 0.00 0.00 0.00 68 1011.0
20260502054334 55 198 1.0 2.0 0.00 0.00 0.00 68 1011.1
20260502053831 55 195 3.0 4.0 0.00 0.00 0.00 67 1010.9
20260502053329 55 323 1.0 2.0 0.00 0.00 0.00 66 1011.0
20260502052826 55 107 5.0 7.0 0.00 0.00 0.00 66 1011.1
20260502052324 55 192 4.0 6.0 0.00 0.00 0.00 65 1011.0
20260502051821 55 195 2.0 4.0 0.00 0.00 0.00 66 1011.2
20260502051321 55 169 3.0 3.0 0.00 0.00 0.00 66 1011.1
20260502050816 55 177 3.0 6.0 0.00 0.00 0.00 66 1011.1
20260502050313 55 329 3.0 4.0 0.00 0.00 0.00 66 1010.9
20260502045810 55 207 2.0 2.0 0.00 0.00 0.00 66 1010.9
20260502045306 55 191 4.0 6.0 0.00 0.00 0.00 66 1011.2
20260502044804 55 244 2.0 3.0 0.00 0.00 0.00 66 1010.9
20260502044259 55 298 1.0 2.0 0.00 0.00 0.00 66 1010.7
20260502043757 55 245 1.0 2.0 0.00 0.00 0.00 66 1010.8
20260502043254 55 287 2.0 2.0 0.00 0.00 0.00 67 1010.9
20260502042754 55 171 3.0 3.0 0.00 0.00 0.00 66 1011.1
20260502042251 55 144 4.0 6.0 0.00 0.00 0.00 67 1011.0
20260502041749 55 299 2.0 3.0 0.00 0.00 0.00 67 1011.0
20260502041246 55 219 5.0 8.0 0.00 0.00 0.00 67 1011.2
20260502040743 55 173 3.0 3.0 0.00 0.00 0.00 68 1011.2
20260502040240 54 303 1.0 2.0 0.00 0.00 0.00 70 1011.1
20260502035735 54 176 4.0 4.0 0.00 0.00 0.00 70 1011.1
20260502035233 55 178 5.0 8.0 0.00 0.00 0.00 71 1011.1
20260502034730 55 141 5.0 7.0 0.00 0.00 0.00 70 1011.2
20260502034228 55 120 3.0 6.0 0.00 0.00 0.00 69 1010.8
20260502033726 55 279 3.0 4.0 0.00 0.00 0.00 69 1011.1
20260502033223 55 144 5.0 7.0 0.00 0.00 0.00 69 1011.0
20260502032720 55 326 2.0 2.0 0.00 0.00 0.00 70 1011.1
20260502032215 55 162 2.0 6.0 0.00 0.00 0.00 70 1010.9
20260502031714 55 311 0.0 1.0 0.00 0.00 0.00 71 1010.9
20260502031212 55 97 3.0 6.0 0.00 0.00 0.00 71 1010.9
20260502030710 55 356 8.0 10.0 0.00 0.00 0.00 71 1011.1
20260502030208 55 152 5.0 8.0 0.00 0.00 0.00 72 1011.2
20260502025705 55 143 4.0 9.0 0.00 0.00 0.00 72 1011.1
20260502025203 55 164 4.0 11.0 0.00 0.00 0.00 72 1011.2
20260502024700 55 295 3.0 4.0 0.00 0.00 0.00 73 1011.3
20260502024158 55 196 6.0 8.0 0.00 0.00 0.00 74 1011.4
20260502023656 54 200 5.0 7.0 0.00 0.00 0.00 75 1011.3
20260502023153 54 124 6.0 7.0 0.00 0.00 0.00 76 1011.1
20260502022650 54 128 7.0 9.0 0.00 0.00 0.00 75 1011.5
20260502022147 54 307 1.0 2.0 0.00 0.00 0.00 76 1011.5
20260502021644 54 130 3.0 4.0 0.00 0.00 0.00 76 1011.1
20260502021141 54 250 1.0 1.0 0.00 0.00 0.00 76 1011.1
20260502020638 54 302 0.0 1.0 0.00 0.00 0.00 76 1011.2
20260502020135 53 248 4.0 4.0 0.00 0.00 0.00 77 1011.1
20260502015633 53 322 1.0 1.0 0.00 0.00 0.00 79 1011.1
20260502015129 53 321 1.0 1.0 0.00 0.00 0.00 79 1011.1
20260502014627 53 310 0.0 0.0 0.00 0.00 0.00 79 1011.3
20260502014124 53 356 2.0 3.0 0.00 0.00 0.00 80 1011.2
20260502013620 53 342 1.0 1.0 0.00 0.00 0.00 80 1011.1
20260502013115 53 324 2.0 2.0 0.00 0.00 0.00 80 1011.2
20260502012613 53 10 3.0 6.0 0.00 0.00 0.00 80 1011.0
20260502012111 53 19 2.0 3.0 0.00 0.00 0.00 79 1011.1
20260502011607 53 320 1.0 1.0 0.00 0.00 0.00 80 1010.8
20260502011103 53 329 2.0 2.0 0.00 0.00 0.00 80 1010.7
20260502010601 53 358 3.0 3.0 0.00 0.00 0.00 79 1010.8
20260502010057 53 63 3.0 4.0 0.00 0.00 0.00 79 1010.6
20260502005555 53 18 4.0 6.0 0.00 0.00 0.00 78 1010.7
20260502005052 54 35 4.0 4.0 0.00 0.00 0.00 78 1010.6
20260502004548 54 353 2.0 3.0 0.00 0.00 0.00 77 1010.6
20260502004045 54 344 0.0 0.0 0.00 0.00 0.00 77 1010.7
20260502003543 54 324 2.0 3.0 0.00 0.00 0.00 77 1010.6
20260502003040 54 48 4.0 4.0 0.00 0.00 0.00 77 1010.8
20260502002536 54 44 5.0 6.0 0.00 0.00 0.00 76 1010.6
20260502002033 54 2 2.0 2.0 0.00 0.00 0.00 77 1010.7
20260502001531 54 12 4.0 6.0 0.00 0.00 0.00 76 1010.5
20260502001028 54 63 4.0 4.0 0.00 0.00 0.00 76 1010.6
20260502000526 54 48 5.0 6.0 0.00 0.00 0.00 75 1010.4
20260502000023 54 79 5.0 6.0 0.00 0.00 0.00 75 1010.6
20260501235518 54 62 5.0 6.0 0.00 0.00 0.00 75 1010.5
20260501235014 54 42 3.0 4.0 0.00 0.00 0.00 76 1010.3
20260501234510 54 303 1.0 1.0 0.00 0.00 0.00 75 1010.3
20260501234009 54 295 5.0 6.0 0.00 0.00 0.00 75 1010.1
20260501233506 54 3 2.0 7.0 0.00 0.00 0.00 75 1010.2
20260501233002 54 353 4.0 4.0 0.00 0.00 0.00 75 1010.2
20260501232459 54 15 2.0 3.0 0.00 0.00 0.00 74 1010.3
20260501231956 55 307 4.0 7.0 0.00 0.00 0.00 73 1010.0
20260501231455 55 66 4.0 6.0 0.00 0.00 0.00 73 1010.1
20260501230952 55 19 5.0 6.0 0.00 0.00 0.00 73 1010.2
20260501230451 55 55 3.0 4.0 0.00 0.00 0.00 72 1010.1
20260501225948 55 63 5.0 6.0 0.00 0.00 0.00 71 1010.3
20260501225446 56 74 5.0 6.0 0.00 0.00 0.00 69 1009.9
20260501224941 56 349 3.0 3.0 0.00 0.00 0.00 69 1010.0
20260501224439 56 11 3.0 4.0 0.00 0.00 0.00 68 1009.9
20260501223936 56 327 2.0 2.0 0.00 0.00 0.00 68 1009.9
20260501223432 56 35 6.0 8.0 0.00 0.00 0.00 67 1010.0
20260501222927 57 57 4.0 8.0 0.00 0.00 0.00 65 1010.1
20260501222425 57 228 8.0 13.0 0.00 0.00 0.00 67 1010.1
20260501221921 57 61 4.0 10.0 0.00 0.00 0.00 65 1009.9
20260501221419 57 48 5.0 6.0 0.00 0.00 0.00 64 1010.0
20260501220917 57 48 4.0 6.0 0.00 0.00 0.00 64 1010.1
20260501220414 57 35 4.0 8.0 0.00 0.00 0.00 64 1010.3
20260501215910 58 31 6.0 7.0 0.00 0.00 0.00 62 1010.3
20260501215407 58 15 5.0 7.0 0.00 0.00 0.00 62 1010.3
20260501214902 58 294 2.0 3.0 0.00 0.00 0.00 62 1010.2
20260501214357 59 119 2.0 2.0 0.00 0.00 0.00 61 1010.2
20260501213853 58 70 2.0 3.0 0.00 0.00 0.00 62 1010.0
20260501213350 59 359 1.0 1.0 0.00 0.00 0.00 60 1010.3
20260501212846 59 302 1.0 2.0 0.00 0.00 0.00 59 1010.3
20260501212343 58 347 3.0 4.0 0.00 0.00 0.00 60 1010.2
20260501211840 58 18 4.0 6.0 0.00 0.00 0.00 60 1010.2
20260501211337 59 313 0.0 0.0 0.00 0.00 0.00 58 1010.0
20260501210834 59 315 1.0 2.0 0.00 0.00 0.00 58 1009.9
20260501210331 59 277 3.0 6.0 0.00 0.00 0.00 58 1010.0
20260501205827 59 324 5.0 8.0 0.00 0.00 0.00 59 1010.1
20260501205324 59 293 2.0 2.0 0.00 0.00 0.00 59 1010.0
20260501204816 58 245 1.0 2.0 0.00 0.00 0.00 60 1010.2
20260501204312 60 294 5.0 7.0 0.00 0.00 0.00 57 1010.1
20260501203809 59 16 2.0 3.0 0.00 0.00 0.00 56 1010.2
20260501203306 58 76 6.0 8.0 0.00 0.00 0.00 57 1010.2
20260501202803 59 6 4.0 7.0 0.00 0.00 0.00 54 1010.2
20260501202300 59 29 5.0 6.0 0.00 0.00 0.00 53 1010.0
20260501201757 61 171 4.0 4.0 0.00 0.00 0.00 52 1010.2
20260501201253 60 51 4.0 6.0 0.00 0.00 0.00 48 1009.9
20260501200750 59 325 4.0 6.0 0.00 0.00 0.00 50 1010.1